Location: Albany
(35.0170°S, 117.8920°E)
Time: 10:08:58
(UTC+08:00)

S-56A Canister/Altair - Pass Details

Date: 28 January 2021
Orbit: 632 x 2501 km, 38.9° (Epoch: 25 February)

Event Time Altitude Azimuth Distance (km) Brightness Sun altitude
Rises 13:34:00 0° 286° (WNW) 5,346 12.1 66.7°
Reaches altitude 10° 13:37:09 10° 284° (WNW) 4,548 12.0 66.2°
Maximum altitude 13:50:42 84° 195° (SSW) 2,469 11.4 64.0°
Drops below altitude 10° 14:06:04 10° 105° (ESE) 5,074 11.5 61.3°
Sets 14:09:49 0° 104° (ESE) 5,968 11.8 60.6°
